Regional Weather Roundup
Issued by NWS

Home | Current Version | Previous Version | Graphics & Text | Print | Product List | Glossary On
Versions: 1 2 3 4 5 6 7 8 9 10 11 12 13 14 15 16 17 18 19 20 21 22 23 24 25 26 27 28 29 30 31 32 33 34 35 36 37 38 39 40 41 42 43 44 45 46 47 48 49 50
000
ASUS43 KOAX 012302
RWRNE
WEATHER ROUNDUP FOR NEBRASKA
NATIONAL WEATHER SERVICE OMAHA NE
600 PM CDT MON JUN 01 2015

NOTES: SATELLITE DATA IS BEING USED TO AUGMENT CLOUD COVER ABOVE
       12000 FEET.
       "FAIR" INDICATES FEW OR NO CLOUDS BELOW 12,000 FEET WITH NO
       SIGNIFICANT WEATHER AND/OR OBSTRUCTIONS TO VISIBILITY.

  * THESE STATIONS DO NOT REPORT WEATHER SUCH AS RAIN...SNOW OR FOG.

NEZ001>004-019>022-054>056-020000-
NEBRASKA PANHANDLE

CITY           SKY/WX    TMP DP  RH WIND       PRES   REMARKS
SCOTTSBLUFF    CLOUDY    69  55  60 NW9       29.95R THUNDER
ALLIANCE       PTSUNNY   77  60  55 S16       29.93F
CHADRON        MOSUNNY   81  62  52 S14       29.85F
KIMBALL          N/A    N/A N/A N/A MISG        N/A
SIDNEY         MOSUNNY   80  58  46 S16       29.98R
$$

NEZ057>060-069>072-079>082-020000-
SOUTHWEST NEBRASKA

CITY           SKY/WX    TMP DP  RH WIND       PRES   REMARKS
NORTH PLATTE   SUNNY     77  62  59 SE15G22   29.98S
IMPERIAL       SUNNY     81  62  52 SE18G24   29.96S
LEXINGTON      SUNNY     74  62  65 SE16G24   30.01S
MCCOOK         MOSUNNY   82  61  48 SE14G23   29.97S
$$

NEZ005>010-023>029-035>040-094-020000-
NORTH CENTRAL NEBRASKA

CITY           SKY/WX    TMP DP  RH WIND       PRES   REMARKS
VALENTINE      SUNNY     82  59  45 S16G26    29.92S
AINSWORTH      SUNNY     80  62  53 S17       29.96S
BROKEN BOW     PTSUNNY   76  59  55 S18G29    30.01R
ORD            PTSUNNY   78  58  49 S17G28    29.99S
$$

NEZ041-046>049-061>064-073>077-083>087-020000-
SOUTH CENTRAL NEBRASKA

CITY           SKY/WX    TMP DP  RH WIND       PRES   REMARKS
GRAND ISLAND   PTSUNNY   76  57  51 S18G25    30.03S
HASTINGS       CLOUDY    72  57  59 S13G22    30.03F
KEARNEY *      CLOUDY    72  57  60 S18G24    30.03F
$$

NEZ011>018-030>034-042>045-020000-
NORTHEAST NEBRASKA

CITY           SKY/WX    TMP DP  RH WIND       PRES   REMARKS
NORFOLK        SUNNY     78  53  41 S16       30.02S
COLUMBUS *     SUNNY     77  52  41 S15       30.05S
FREMONT        SUNNY     75  51  41 SE10      30.07R
TEKAMAH        SUNNY     77  51  40 SE15G22   30.06S
$$

NEZ050>053-065>068-078-088>093-020000-
SOUTHEAST NEBRASKA

CITY           SKY/WX    TMP DP  RH WIND       PRES   REMARKS
LINCOLN        SUNNY     75  54  47 S12       30.06S
OMAHA EPPLEY   MOSUNNY   74  51  44 S16       30.07F
FALLS CITY     SUNNY     72  53  51 SE9       30.08F
NEBRASKA CITY  SUNNY     72  47  41 SE13      30.08F
PLATTSMOUTH    SUNNY     73  49  42 SE13      30.08S
$$

NEZ044-045-051>053-067-020000-
OMAHA AREA

CITY           SKY/WX    TMP DP  RH WIND       PRES   REMARKS
OMAHA EPPLEY   MOSUNNY   74  51  44 S16       30.07F
FREMONT        SUNNY     75  51  41 SE10      30.07R
OFFUTT AFB     SUNNY     74  53  48 S9        30.07S
PLATTSMOUTH    SUNNY     73  49  42 SE13      30.08S
WAHOO          FAIR      76  51  40 SE15G21   30.06S
$$



USA.gov is the U.S. government's official web portal to all federal, state and local government web resources and services.